Location: Dine Sky Observatory
(36.3696°N, 109.6234°W)
Time: 19:00:18
(UTC-07:00)

N. Korean satellite - Visible Passes

Search period start: 23 January 2018 00:00
Search period end: 02 February 2018 00:00
Orbit: 458 x 515 km, 97.2° (Epoch: 23 January)

Date Brightness Start Highest point End Pass type
(mag) Time Alt. Az. Time Alt. Az. Time Alt. Az.
23 Jan 7.3 06:47:21 10° NNE 06:50:44 56° E 06:54:08 10° S visible
23 Jan 8.9 18:54:40 10° SSW 18:57:43 26° W 19:00:45 10° NW visible
24 Jan 9.1 06:24:06 10° NE 06:27:01 25° E 06:29:55 10° SSE visible
24 Jan 7.3 18:30:30 10° S 18:34:00 57° W 18:37:29 10° NNW visible
25 Jan 10.0 06:01:43 10° ENE 06:03:14 12° E 06:04:43 10° ESE visible
25 Jan 6.5 18:06:51 10° SSE 18:10:22 62° ENE 18:13:50 10° N visible
26 Jan 10.0 19:18:32 10° WSW 19:20:18 13° W 19:22:03 10° WNW visible
27 Jan 7.4 06:46:07 10° NNE 06:49:30 54° E 06:52:56 10° S visible
27 Jan 8.9 18:53:28 10° SSW 18:56:30 26° W 18:59:32 10° NW visible
28 Jan 9.1 06:22:52 10° NE 06:25:46 25° E 06:28:41 10° SSE visible
28 Jan 7.2 18:29:18 10° S 18:32:47 59° W 18:36:14 10° NNW visible
29 Jan 10.1 06:00:31 10° ENE 06:01:58 12° E 06:03:25 10° ESE visible
29 Jan 6.5 18:05:39 10° SSE 18:09:07 59° ENE 18:12:33 10° N visible
30 Jan 10.0 19:17:16 10° SW 19:19:03 13° W 19:20:48 10° WNW visible
31 Jan 7.5 06:44:50 10° NNE 06:48:15 52° E 06:51:41 10° S visible
31 Jan 8.9 18:52:13 10° SSW 18:55:14 27° W 18:58:15 10° NW visible
01 Feb 9.2 06:21:36 10° NE 06:24:30 24° E 06:27:26 10° SSE visible
01 Feb 7.1 18:28:03 10° S 18:31:30 61° W 18:34:56 10° NNW visible
